Regional Weather Roundup
Issued by NWS

Home | Current Version | Previous Version | Text Only | Print | Product List | Glossary Off
Versions: 1 2 3 4 5 6 7 8 9 10 11 12 13 14 15 16 17 18 19 20 21 22 23 24 25 26 27 28 29 30 31 32 33 34 35 36 37 38 39 40 41 42 43 44 45 46 47 48 49 50

022
ASUS45 KBOU 231707
RWRCO

WEATHER ROUNDUP FOR COLORADO
NATIONAL WEATHER SERVICE DENVER/BOULDER CO
1100 AM MDT SUN APR 23 2017

NOTE: "FAIR" INDICATES FEW OR NO CLOUDS BELOW 12000 FEET WITH NO
SIGNIFICANT WEATHER AND/OR OBSTRUCTIONS TO VISIBILITY.

COZ001>005-013-030-031-231800-
...NORTHWEST COLORADO...

CITY           SKY/WX    TMP DP  RH WIND       PRES   REMARKS
CRAIG          FAIR      57  26  30 E12       29.98F
HAYDEN         FAIR      55  21  26 E7        29.99F
MEEKER         FAIR      65  20  17 S14       29.97F
MOUNT WERNER   NOT AVBL
STEAMBOAT SPGS FAIR      55  30  38 CALM      30.01F
WALDEN           N/A     54  19  26 SW17G24   30.04F
$$

COZ006>008-011-231800-
...WEST CENTRAL VALLEYS...

CITY           SKY/WX    TMP DP  RH WIND       PRES   REMARKS
GRAND JUNCTION FAIR      64  23  21 SE12      29.95F
MONTROSE       FAIR      62  24  23 NW9       30.02F
EAGLE          SUNNY     52  21  30 CALM      30.07F
RIFLE          FAIR      58  27  30 CALM      29.99F
DELTA          FAIR      64  24  21 CALM      30.00F
NUCLA          FAIR      59  21  23 N3        30.07F
$$

COZ017>023-064>068-231800-
...SOUTHWEST COLORADO...

CITY           SKY/WX    TMP DP  RH WIND       PRES   REMARKS
DURANGO        FAIR      55  27  34 SE9       30.15F
CORTEZ         FAIR      65  30  27 S18G26    30.07F
PAGOSA SPRINGS FAIR      53  22  30 W5        30.21F
TELLURIDE      FAIR      57  18  21 W7        30.17F
WOLF CREEK PAS FAIR      34  19  55 SW16G23   30.36F WCI  23
$$

COZ009-010-012-014-032>034-037-058>063-231800-
...CENTRAL COLORADO...

CITY           SKY/WX    TMP DP  RH WIND       PRES   REMARKS
ASPEN          FAIR      58  18  21 VRB3      30.05F
BUENA VISTA    FAIR      47  26  43 E3        30.12F
COPPER MTN     FAIR      43   3  19 W21G31    30.24F
BERTHOUD PASS  FAIR      34  23  64 NW18G37   30.24S WCI  23
COTTONWOOD PAS FAIR      48  27  43 SE9       30.18S
GUNNISON       FAIR      51  23  33 VRB3      30.14F
KREMMLING      FAIR      57  28  33 E5        30.06F
LEADVILLE      FAIR      48  12  23 S8        30.14F
MONARCH PASS   FAIR      36  18  48 SW28G36   30.38R
SALIDA         FAIR      58  22  25 S15G24    30.16F
SUNLIGHT       FAIR      43  19  39 S7G22     30.22F
WILKERSON PASS FAIR      37  19  48 SW15G22   30.24R
$$

COZ069>075-231800-
...SAN LUIS VALLEY/SANGRE DE CRISTO MOUNTAINS...

CITY           SKY/WX    TMP DP  RH WIND       PRES   REMARKS
ALAMOSA        FAIR      50  28  42 CALM      30.19F
LA VETA PASS   FAIR      37  30  75 MISG      30.30S
SAGUACHE       FAIR      48  28  46 SE8G16    30.19F
$$

COZ035-036-038>040-231800-
...NORTHERN COLORADO FRONT RANGE...

CITY           SKY/WX    TMP DP  RH WIND       PRES   REMARKS
DENVER INTL AP PTSUNNY   59  31  34 W7        29.95F
DMNS CITY PARK   N/A     58  29  32 SE7       29.94F
AURORA         PTSUNNY   60  28  29 S7        29.96F
FRONT RANGE AP PTSUNNY   61  32  33 S6        29.96F
ERIE MUNI ARPT FAIR      52  32  47 CALM      29.96S
BOULDER MUN AP FAIR      50  34  53 CALM      29.95F
CENTENNIAL     PTSUNNY   59  25  27 VRB3      29.96F
BROOMFIELD     PTSUNNY   54  32  43 CALM      29.97F
FORT COLLINS   FAIR      50  35  56 VRB6      29.95F
LONGMONT       FAIR      56  36  47 SE3       29.96F HAZE
$$

COZ041-046-047-076>085-087-088-231800-
...PIKES PEAK/PALMER DIVIDE AND SOUTHERN FOOTHILLS...

CITY           SKY/WX    TMP DP  RH WIND       PRES   REMARKS
COLO. SPRINGS  PTSUNNY   49  33  54 CALM      30.03F
A. F. ACADEMY  FAIR      51  31  46 S3        30.02F
SCHRIEVER AFB  FAIR      48  34  58 SW9       30.02F
ELLICOTT       FAIR     N/A N/A N/A S12       30.00F
FALCON         FAIR      49  32  51 S5        30.04F
FORT CARSON    FAIR      49  34  55 SE5       30.01F
LIMON          FAIR      56  35  45 S17G23    30.00F
MONUMENT HILL  FAIR      57  23  26 SW9       30.03S
TRINIDAD       FAIR      59  29  31 VRB6      30.04F
$$

COZ042>045-048>051-090-091-231800-
...NORTHEAST COLORADO...

CITY           SKY/WX    TMP DP  RH WIND       PRES   REMARKS
GREELEY ARPT   FAIR      51  39  63 CALM      29.95F
AKRON          FAIR      59  35  40 S15G28    29.96F
BURLINGTON     NOT AVBL
WRAY           NOT AVBL
STERLING       FAIR      61  39  44 SW13      29.93F
HOLYOKE        FAIR      61  37  41 S24       29.98F
FORT MORGAN    FAIR      58  33  38 SW7       29.95F
$$

COZ086-089-092>099-231800-
...SOUTHEAST COLORADO...

CITY           SKY/WX    TMP DP  RH WIND       PRES   REMARKS
PUEBLO         FAIR      53  38  56 CALM      30.01F
LA JUNTA       FAIR      61  36  39 S7        30.01F
LAMAR          FAIR      63  35  35 S22       30.01F
SPRINGFIELD      N/A     59  32  36 S32G40    30.07F
$$




USA.gov is the U.S. government's official web portal to all federal, state and local government web resources and services.